This is the latest recevied weather packets stored in our database for station/object WX4LTG. If no packets are shown the sender has not sent any weather packets the latest 10 day(s).
| Time | Temp. | Humidity | Pressure | Rain* | Wind** | Luminosity | Snow |
|---|---|---|---|---|---|---|---|
| 1777768066 | 32.78° C | 15% | 1009.4 hPa | 0 mm | - | 137 W/m² | - |
| 1777767763 | 32.78° C | 16% | 1009.4 hPa | 0 mm | - | 202 W/m² | - |
| 1777767458 | 32.78° C | 15% | 1009.5 hPa | 0 mm | - | 179 W/m² | - |
| 1777767155 | 32.78° C | 15% | 1009.7 hPa | 0 mm | - | 182 W/m² | - |
| 1777766854 | 32.78° C | 15% | 1009.6 hPa | 0 mm | - | 210 W/m² | - |
| 1777766551 | 32.78° C | 15% | 1009.5 hPa | 0 mm | - | 272 W/m² | - |
| 1777766247 | 33.33° C | 15% | 1009.4 hPa | 0 mm | - | 307 W/m² | - |
| 1777765945 | 32.78° C | 15% | 1009.8 hPa | 0 mm | - | 233 W/m² | - |
| 1777765641 | 32.78° C | 15% | 1009.5 hPa | 0 mm | - | 199 W/m² | - |
| 1777765339 | 33.33° C | 16% | 1009.4 hPa | 0 mm | - | 225 W/m² | - |
| 1777765034 | 32.78° C | 16% | 1009.5 hPa | 0 mm | - | 318 W/m² | - |
| 1777764731 | 32.78° C | 16% | 1009.9 hPa | 0 mm | - | 337 W/m² | - |
| 1777764427 | 32.78° C | 16% | 1009.7 hPa | 0 mm | - | 230 W/m² | - |
| 1777764125 | 33.33° C | 16% | 1009.9 hPa | 0 mm | - | 241 W/m² | - |
| 1777763821 | 33.33° C | 16% | 1009.7 hPa | 0 mm | - | 390 W/m² | - |
| 1777763519 | 34.44° C | 16% | 1009.8 hPa | 0 mm | - | 302 W/m² | - |
| 1777763217 | 33.33° C | 16% | 1009.8 hPa | 0 mm | - | 290 W/m² | - |
| 1777762915 | 34.44° C | 15% | 1009.6 hPa | 0 mm | - | 468 W/m² | - |
| 1777762610 | 33.33° C | 16% | 1009.7 hPa | 0 mm | - | 497 W/m² | - |
| 1777762308 | 33.33° C | 16% | 1009.8 hPa | 0 mm | - | 358 W/m² | - |
| 1777762004 | 33.89° C | 16% | 1010.1 hPa | 0 mm | - | 430 W/m² | - |
| 1777761701 | 33.89° C | 16% | 1010 hPa | 0 mm | - | 526 W/m² | - |
| 1777761399 | 33.33° C | 16% | 1010.2 hPa | 0 mm | - | 515 W/m² | - |
| 1777761097 | 33.33° C | 16% | 1010 hPa | 0 mm | - | 491 W/m² | - |
| 1777760794 | 33.33° C | 16% | 1010.5 hPa | 0 mm | - | 556 W/m² | - |
* Rain latest hour (hover to see other rain measurements)
** Current wind speed in m/s (hover to see current wind gust speed)